#timestamp,LO_Frequency,Hit,StdDev 
1654714815.8,286047000.5,N
1654714835.6,286047001.1,N
1654714855.4,286046998.1,N
1654714875.3,286046998.8,N
1654714895.1,286047000.4,N
1654714915.8,286047000.1,N
1654714935.7,286047002.8,N
1654714955.5,286047000.1,N
1654714975.4,286047000.5,N
1654714995.2,286047000.5,N
1654715015.0,286046998.2,N
1654715015.9,286046998.2,N
1654715035.8,286046999.7,N
1654715055.6,286047002.3,N
1654715075.4,286047002.5,N
1654715095.3,286046999.7,N
1654715115.1,286047000.4,N
1654715135.9,286046998.1,N
1654715155.7,286047000.8,N
1654715175.5,286046999.3,N
1654715195.4,286046999.0,N
1654715215.2,286047000.4,N
1654715235.1,286047000.5,N
1654715236.0,286047000.5,N
1654715255.8,286047000.5,N
1654715275.6,286047001.0,N
1654715295.5,286047000.7,N
1654715315.3,286047000.1,N
1654715335.1,286047000.1,N
1654715355.9,286047000.1,N
1654715375.7,286047000.6,N
1654715395.6,286047000.2,N
1654715415.4,286047000.3,N
1654715435.2,286047000.1,N
1654715455.1,286047001.0,N
1654715456.0,286047001.0,N
1654715475.8,286046999.9,N
1654715495.6,286047000.2,N
1654715515.5,286047000.3,N
1654715535.3,286046999.7,N
1654715555.2,286046999.9,N
1654715575.9,286047001.2,N
1654715595.7,286047000.8,N
1654715615.6,286047001.0,N
1654715635.4,286046999.7,N
1654715655.2,286047005.3,Y
1654715675.1,286047007.5,P
1654715676.0,286047007.5,N
1654715695.8,286047004.5,N
1654715715.7,286047005.6,N
1654715735.5,286047002.1,N
1654715755.3,286047004.0,N
1654715775.2,286047003.9,N
1654715795.0,286047004.1,N
1654715795.9,286047004.1,N
1654715815.7,286047001.4,N
1654715835.6,286047003.9,N
1654715855.4,286047003.8,N
1654715875.3,286047004.4,N
1654715895.1,286047001.6,N
1654715896.0,286047001.6,N
1654715915.8,286047002.0,N
1654715935.7,286047002.8,N
1654715955.5,286047000.8,N
1654715975.3,286047000.5,N
1654715995.2,286047000.9,N
1654716015.0,286047002.0,N
1654716015.9,286047002.0,N
1654716035.8,286046999.8,N
1654716055.6,286047000.0,N
1654716075.4,286047000.1,N
1654716095.3,286046999.8,N
1654716115.1,286047002.1,N
1654716135.8,286047002.3,N
1654716155.7,286047000.3,N
1654716175.5,286046999.7,N
1654716195.4,286046999.7,N
1654716215.2,286047002.7,N
1654716235.0,286047002.8,N
1654716235.9,286047002.8,N
1654716255.8,286047002.4,N
1654716275.6,286047000.1,N
1654716295.5,286047002.6,N
1654716315.3,286047004.4,Y
1654716335.1,286047002.6,P
1654716355.9,286047002.2,P
1654716375.7,286047001.8,P
1654716395.5,286047000.2,N
1654716415.4,286047000.4,N
1654716435.2,286047000.5,N
1654716455.1,286047001.1,N
1654716456.0,286047001.1,N
1654716475.8,286046998.4,N
1654716495.7,286046998.6,N
1654716515.5,286046998.2,N
1654716535.3,286046999.2,N
1654716555.2,286047000.8,N
1654716575.0,286046998.5,N
1654716575.9,286046998.5,N
1654716595.7,286046998.8,N
1654716615.6,286046999.6,N
1654716635.4,286046997.0,N
1654716655.3,286046998.9,N
1654716675.1,286046998.9,N
1654716676.0,286046998.9,N
1654716695.8,286046996.6,N
1654716715.7,286046997.7,N
1654716735.5,286046994.9,Y
1654716755.3,286046997.6,P
1654716775.2,286046997.0,P
1654716795.0,286046996.5,P
1654716795.9,286046996.5,Y
1654716815.8,286047000.3,P
1654716835.6,286047000.5,N
1654716855.4,286046999.9,N
1654716875.3,286047001.9,N
1654716895.1,286047004.4,Y
1654716915.9,286047002.8,P
1654716935.7,286047001.0,N
1654716955.5,286047001.1,N
1654716975.4,286047000.6,N
1654716995.2,286047000.3,N
1654717015.0,286046998.2,N
1654717016.0,286046998.2,N
1654717035.8,286047000.7,N
1654717055.6,286046998.2,N
1654717075.5,286046999.0,N
1654717095.3,286046998.7,N
1654717115.1,286046998.6,N
1654717135.9,286047000.0,N
1654717155.7,286047002.7,N
1654717175.6,286047001.6,N
1654717195.4,286047004.3,N
1654717215.2,286047001.3,N
1654717235.1,286047001.4,N
1654717236.0,286047001.4,N
1654717255.8,286047001.6,N
1654717275.6,286047002.0,N
1654717295.5,286047004.4,N
1654717315.3,286047001.6,N
1654717335.2,286047002.0,N
1654717355.9,286047001.7,N
1654717375.7,286047003.9,N
1654717395.6,286047001.4,N
1654717415.4,286047001.3,N
1654717435.2,286047001.7,N
1654717455.1,286047001.4,N
1654717456.0,286047001.4,N
1654717475.8,286047001.4,N
1654717495.7,286047001.5,N
1654717515.5,286047003.9,N
1654717535.3,286047004.1,N
1654717555.2,286047003.7,N
1654717575.0,286047003.7,N
1654717575.9,286047003.7,N
1654717595.8,286047003.0,N
1654717615.6,286047003.1,N
1654717635.4,286047004.2,N
1654717655.3,286047003.7,N
1654717675.1,286047004.1,Y
1654717695.8,286047002.3,P
1654717715.7,286047002.1,P
1654717735.5,286047000.1,N
1654717755.4,286046999.7,N
1654717775.2,286047000.5,N
1654717795.0,286047000.9,N
1654717795.9,286047000.9,N
1654717815.8,286047000.6,N
1654717835.6,286046998.3,N
1654717855.4,286047001.1,N
1654717875.3,286046998.5,N
1654717895.1,286047000.7,N
1654717915.9,286047000.4,N
1654717935.7,286047000.5,N
1654717955.5,286047000.8,N
1654717975.4,286047000.6,N
1654717995.2,286047000.7,N
1654718015.1,286047000.5,N
1654718016.0,286047000.5,N
1654718035.8,286047000.6,N
1654718055.6,286047000.2,N
1654718075.5,286047001.6,N
1654718095.3,286047001.3,N
1654718115.1,286047002.5,N
1654718135.9,286046999.9,N
1654718155.7,286047002.7,N
1654718175.6,286047000.1,N
1654718195.4,286047002.6,N
1654718215.2,286046999.9,N
1654718235.1,286047002.6,N
1654718236.0,286047002.6,N
1654718255.8,286047002.5,N
1654718275.6,286047002.1,N
1654718295.5,286047002.1,N
1654718315.3,286047002.1,N
1654718335.2,286047002.2,N
1654718355.9,286047002.2,N
1654718375.7,286047001.5,N
1654718395.6,286047001.6,N
